R1ZCU-14 Weather Reports


time (UTC)temp
F
wind
direction
speed
knots
gust
knots
rain 1hr
in
rain 24hr
in
rain mn
in
humidity
%
barometer
mb
20260503200054 36 0.0 0.0 0.00 0.00 0.00 52 995.6
20260503195054 36 0.0 0.0 0.00 0.00 0.00 52 995.6
20260503194053 36 0.0 0.0 0.00 0.00 0.00 51 995.6
20260503193053 36 0.0 0.0 0.00 0.00 0.00 51 995.5
20260503192052 36 0.0 0.0 0.00 0.00 0.00 51 995.5
20260503191052 37 0.0 0.0 0.00 0.00 0.00 50 995.5
20260503190051 37 0.0 0.0 0.00 0.00 0.00 50 995.5
20260503185051 37 0.0 0.0 0.00 0.00 0.00 49 995.4
20260503184050 38 0.0 0.0 0.00 0.00 0.00 49 995.4
20260503183050 38 0.0 0.0 0.00 0.00 0.00 47 995.2
20260503182049 38 0.0 0.0 0.00 0.00 0.00 45 995.2
20260503181049 39 0.0 0.0 0.00 0.00 0.00 44 995.1
20260503180048 39 0.0 0.0 0.00 0.00 0.00 44 995.1
20260503175048 39 0.0 0.0 0.00 0.00 0.00 43 995.0
20260503174047 39 0.0 0.0 0.00 0.00 0.00 43 994.9
20260503173047 40 0.0 0.0 0.00 0.00 0.00 42 994.8
20260503172046 40 0.0 0.0 0.00 0.00 0.00 40 994.7
20260503171046 41 0.0 0.0 0.00 0.00 0.00 40 994.6
20260503131034 43 0.0 0.0 0.00 0.00 0.00 37 993.9
20260503081019 57 0.0 0.0 0.00 0.00 0.00 19 992.2
20260503072017 56 0.0 0.0 0.00 0.00 0.00 21 991.3
20260503071016 52 0.0 0.0 0.00 0.00 0.00 24 991.3
20260503055012 54 0.0 0.0 0.00 0.00 0.00 23 991.0
20260503054012 55 0.0 0.0 0.00 0.00 0.00 23 990.8
20260503053011 53 0.0 0.0 0.00 0.00 0.00 25 990.9
20260503052011 53 0.0 0.0 0.00 0.00 0.00 24 990.7
20260503051010 52 0.0 0.0 0.00 0.00 0.00 26 990.7
20260503050010 51 0.0 0.0 0.00 0.00 0.00 27 990.7
20260503045009 49 0.0 0.0 0.00 0.00 0.00 30 990.5
20260503044009 49 0.0 0.0 0.00 0.00 0.00 31 990.7
20260503043008 48 0.0 0.0 0.00 0.00 0.00 31 990.7
20260503042008 46 0.0 0.0 0.00 0.00 0.00 35 990.8
20260503041007 46 0.0 0.0 0.00 0.00 0.00 36 990.8
20260503040007 45 0.0 0.0 0.00 0.00 0.00 37 990.8
20260503035006 45 0.0 0.0 0.00 0.00 0.00 39 990.7
20260503034006 45 0.0 0.0 0.00 0.00 0.00 40 990.7
20260503033005 47 0.0 0.0 0.00 0.00 0.00 40 990.6
20260503032005 46 0.0 0.0 0.00 0.00 0.00 41 990.6
20260503031004 45 0.0 0.0 0.00 0.00 0.00 43 990.8
20260503030004 44 0.0 0.0 0.00 0.00 0.00 45 990.8
20260503025003 44 0.0 0.0 0.00 0.00 0.00 44 990.8
20260503024003 45 0.0 0.0 0.00 0.00 0.00 45 990.8
20260503023002 44 0.0 0.0 0.00 0.00 0.00 46 990.7
20260503022002 42 0.0 0.0 0.00 0.00 0.00 47 990.8
20260503021001 42 0.0 0.0 0.00 0.00 0.00 48 990.8
20260503020001 42 0.0 0.0 0.00 0.00 0.00 50 990.9
20260503015000 39 0.0 0.0 0.00 0.00 0.00 53 990.8
20260503014000 37 0.0 0.0 0.00 0.00 0.00 56 991.0
20260503012959 37 0.0 0.0 0.00 0.00 0.00 58 991.2
20260503011959 37 0.0 0.0 0.00 0.00 0.00 60 991.1
20260503010958 36 0.0 0.0 0.00 0.00 0.00 63 991.1
20260503005958 34 0.0 0.0 0.00 0.00 0.00 67 991.3
20260503004957 34 0.0 0.0 0.00 0.00 0.00 66 991.2
20260503003957 34 0.0 0.0 0.00 0.00 0.00 66 991.2
20260503002956 34 0.0 0.0 0.00 0.00 0.00 65 991.1
20260503001956 34 0.0 0.0 0.00 0.00 0.00 64 990.9
20260503000955 34 0.0 0.0 0.00 0.00 0.00 63 990.9
20260502235955 35 0.0 0.0 0.00 0.00 0.00 62 990.9
20260502234954 35 0.0 0.0 0.00 0.00 0.00 61 991.0
20260502233954 35 0.0 0.0 0.00 0.00 0.00 61 990.9
20260502232953 36 0.0 0.0 0.00 0.00 0.00 59 990.9
20260502231953 36 0.0 0.0 0.00 0.00 0.00 60 990.9
20260502230952 36 0.0 0.0 0.00 0.00 0.00 60 990.7
20260502225952 36 0.0 0.0 0.00 0.00 0.00 60 990.7
20260502224951 36 0.0 0.0 0.00 0.00 0.00 60 990.4
20260502223951 37 0.0 0.0 0.00 0.00 0.00 63 990.4
20260502222950 37 0.0 0.0 0.00 0.00 0.00 64 990.3
20260502221950 37 0.0 0.0 0.00 0.00 0.00 64 990.2
20260502220949 37 0.0 0.0 0.00 0.00 0.00 65 990.2
20260502215949 37 0.0 0.0 0.00 0.00 0.00 64 990.2
20260502214948 37 0.0 0.0 0.00 0.00 0.00 63 990.2
20260502213948 37 0.0 0.0 0.00 0.00 0.00 61 990.0
20260502212947 37 0.0 0.0 0.00 0.00 0.00 61 990.0
20260502211947 37 0.0 0.0 0.00 0.00 0.00 59 990.0
20260502210946 37 0.0 0.0 0.00 0.00 0.00 58 989.8
20260502205946 37 0.0 0.0 0.00 0.00 0.00 57 989.7
20260502204945 38 0.0 0.0 0.00 0.00 0.00 57 989.7
20260502203945 38 0.0 0.0 0.00 0.00 0.00 57 989.7
20260502202944 38 0.0 0.0 0.00 0.00 0.00 60 989.6
20260502201944 39 0.0 0.0 0.00 0.00 0.00 60 989.6